Showing default

SHERPA-FX2/TAGSAT-2, 48958

Orbit data source: Space-Track

SHERPA-FX2/TAGSAT-2, 48958 is a payload satellite owned by Spaceflight Ind (US) in SSO that was launched on Wed, 30 Jun 2021 UTC via an FALCON 9 launch vehicle from the Air Force Eastern Test Range (AFETR). Payload-class satellites include a variety of spacecraft equipped with specific instruments for various scientific and technological missions. These include communications satellites like Starlink; space stations such as the ISS; scientific satellites like the Hubble; Earth observation satellites from companies like Planet Labs, Umbra, and HawkEye 360; GPS; miniature CubeSats for education and research; and military/defense satellites.

Loading next visibility...
Identifier
48958, 2021-059CH
Orbit
SSO
Country
Flag of USUS
Related business
Manufacturer
Spaceflight Ind
Mission
Operational Commercial Technology
Bus & Motor
ESPA/SHERPA-FX, Unknown motor
Mass
295 kg wet, 128 kg dry
Launch date (UTC)
2021-06-30 (5 years ago)
Launch vehicle
FALCON 9
Launch site
Air Force Eastern Test Range (AFETR)
Object type
Payload
Rocket body
Debris
Shape & HBR
Cyl, 0.4 m
Radar Cross Section
0.503 m², Large (>1 m²)

Expand to show TLE details & history
Last TLE update: 15 hours ago

TLE from 15 hours ago
0 SHERPA-FX2/TAGSAT-2
1 48958U 21059CH  26265.80310524  .00018732  00000-0  23395-3 0  9991
2 48958  97.6780 107.4597 0005474 350.3163   9.7987 15.59896481292624
Epoch: 2026-09-22T19:16Z
TLE epoch observation values (Epoch: 2026-09-22T19:16:28.292Z)
Latitude
0.00001°
Longitude
176.67847°
Altitude
387.442 km
Speed
7.68 km/s
True Right ascension
07h 09m 50s
True Declination
0° 00' 00"
Sunlit
Object was in daylight at epoch
Visualization orbit readout
Latitude
Unknown
Longitude
Unknown
Altitude
Unknown
Speed
Unknown
Apparent Right ascension
Unknown
Apparent Declination
Unknown
Sunlit
N/A
Visualization observer readout
Local Sidereal Time
03:08:07
Azimuth
Unknown
Elevation
Unknown
Doppler factor
Unknown
Orbital elements
Apogee altitude
388.583 km
Perigee altitude
381.179 km
Semi-major axis
6,763.018 km
Eccentricity
0.00055
Inclination
97.678°
RAAN
107.4597°
Arg. of periapsis
350.3163°
True anomaly
9.80938°
Mean anomaly
9.7987°
Eccentric anomaly
9.80404°
Mean motion
3.9024 °/min
Orbital period
92.25 mins
BSTAR
0.00023395
Loading maneuver chart data...
Computing Atmospheric mass density...

Documentation

Showing up to 5 results
|